Weather observations for the past three days for
Seymour-Johnson Air Force Base
Imperial (Metric)
Date Time (edt) Wind (mph) Vis. (mi.) Weather Sky Cond. Temperature (ºF) Relative Humidity Wind Chill (°F) Heat Index (°F) Pressure Precipitation (in)
Air Dwpt 6 hour altimeter (in) sea level (mb) 1 hr 3 hr 6 hr
Max. Min.
18 20:55 SE 6 10.00 Fair CLR 79.9 60.6 52% 81 30.2 1022.9
18 19:55 SE 8 10.00 A Few Clouds FEW050 83.5 59.2 91.9 83.5 44% 83 30.19 1022.6
18 18:55 SE 10 10.00 A Few Clouds FEW050 86.5 60.6 42% 86 30.17 1021.9
18 17:55 SE 12 10.00 A Few Clouds FEW065 90 60.1 37% 90 30.17 1021.9
18 16:55 E 6 10.00 Fair CLR 91 58.6 34% 90 30.17 1021.9
18 15:55 SE 8 10.00 Partly Cloudy SCT060 90.7 60.1 36% 90 30.18 1022.2
18 14:55 SE 7 10.00 Partly Cloudy SCT065 91.8 59.4 34% 91 30.19 1022.6
18 13:55 E 13 G 20 10.00 Partly Cloudy SCT060 88.2 59.4 90.1 74.3 38% 88 30.2 1022.9
18 12:55 E 12 G 18 10.00 A Few Clouds FEW055 88.7 60.4 39% 88 30.21 1023.3
18 11:55 SE 9 10.00 Fair CLR 84.7 62.2 47% 85 30.22 1023.6
18 09:55 SE 7 10.00 Partly Cloudy FEW045 FEW070 SCT220 82 62.1 51% 83 30.22 1023.6
18 08:55 E 3 10.00 A Few Clouds FEW220 79.5 64.4 60% 81 30.23 1023.9
18 07:55 Calm 10.00 A Few Clouds FEW060 FEW220 74.1 64.9 74.1 65.1 73% 30.22 1023.6
18 06:55 E 3 10.00 A Few Clouds FEW050 67.8 63.9 87% 30.2 1022.9
18 05:55 E 3 10.00 Fair CLR 65.8 62.2 88% 30.19 1022.6
18 04:55 Calm 10.00 A Few Clouds FEW060 66.7 62.4 86% 30.18 1022.2
18 03:55 Calm 10.00 Partly Cloudy SCT060 67.1 62.8 86% 30.18 1022.2
18 02:55 Calm 10.00 A Few Clouds FEW060 67.8 61.7 81% 30.17 1021.9
18 01:55 Calm 10.00 A Few Clouds FEW200 70 62.8 78% 30.18 1022.2
18 00:55 E 3 10.00 A Few Clouds FEW200 71.4 63 86 71.1 75% 30.18 1022.2
17 23:55 Calm 10.00 A Few Clouds FEW200 74.3 62.6 67% 30.19 1022.6
17 22:55 S 3 10.00 A Few Clouds FEW150 75.9 62.8 64% 78 30.17 1021.9
17 21:55 SE 6 10.00 Partly Cloudy SCT150 78.3 62.2 58% 80 30.16 1021.6
17 20:55 SE 7 10.00 Partly Cloudy SCT250 80.8 63.5 56% 82 30.13 1020.5
17 19:55 SE 5 10.00 Partly Cloudy FEW050 SCT250 83.8 64.8 92.5 83.8 53% 86 30.11 1019.9
17 18:55 SE 9 10.00 Partly Cloudy SCT060 87.1 61.2 42% 87 30.1 1019.5
17 17:55 SE 7 10.00 Partly Cloudy SCT060 89.1 63 42% 90 30.1 1019.5
17 16:55 E 7 10.00 Partly Cloudy SCT070 89.8 61.5 39% 90 30.12 1020.2
17 15:55 SE 6 10.00 Mostly Cloudy BKN065 90.3 61.9 39% 91 30.13 1020.5
17 14:55 SE 5 10.00 Mostly Cloudy BKN060 89.6 62.1 40% 90 30.15 1021.2
17 13:55 E 9 G 16 10.00 Partly Cloudy FEW050 SCT080 SCT250 89.4 61.9 91 75.7 40% 90 30.16 1021.5
17 12:55 SE 9 10.00 Partly Cloudy FEW060 FEW090 SCT250 88.2 62.8 43% 89 30.17 1021.9
17 11:55 SE 7 10.00 Fair CLR 87.4 62.1 43% 88 30.18 1022.2
17 10:55 SW 5 10.00 A Few Clouds FEW040 FEW080 84.2 64 51% 86 30.2 1022.9
17 09:55 S 8 10.00 A Few Clouds FEW050 FEW080 81.5 64.8 57% 83 30.2 1022.9
17 08:55 SE 7 10.00 A Few Clouds FEW060 FEW090 79.3 63.7 59% 81 30.2 1022.9
17 07:55 Calm 10.00 Partly Cloudy FEW060 SCT090 75.4 66 75.4 67.6 73% 77 30.21 1023.3
17 06:55 SE 3 10.00 Mostly Cloudy BKN070 69.8 66 88% 30.19 1022.6
17 05:55 Calm 10.00 Mostly Cloudy BKN085 69.3 65.1 87% 30.18 1022.2
17 04:55 Calm 10.00 Fair CLR 68.5 63.5 84% 30.16 1021.6
17 03:55 Calm 10.00 Fair CLR 69.6 64.2 83% 30.15 1021.2
17 02:55 E 3 10.00 Mostly Cloudy BKN070 70.7 64.2 80% 30.16 1021.6
17 01:55 Calm 10.00 Mostly Cloudy BKN070 73.6 63.1 84.4 73.6 70% 30.17 1021.9
17 00:55 Calm 10.00 Overcast BKN070 OVC080 75.2 63 66% 77 30.17 1021.9
16 23:55 SE 3 10.00 Mostly Cloudy BKN070 75.4 62.8 65% 77 30.16 1021.5
16 22:55 SE 5 10.00 Fair CLR 75.6 60.6 60% 78 30.15 1021.2
16 21:55 SE 7 10.00 Fair CLR 77.7 58.1 51% 79 30.14 1020.9
16 20:55 SE 9 10.00 Fair CLR 81.7 58.3 45% 82 30.13 1020.5
16 19:55 SE 9 10.00 Fair CLR 84.6 56.8 91.9 84.6 39% 84 30.11 1019.9
16 18:55 SE 10 10.00 A Few Clouds FEW100 87.3 57 36% 86 30.11 1019.9
16 17:55 SE 10 10.00 Partly Cloudy SCT095 89.1 57.7 35% 88 30.1 1019.5
16 16:55 SE 9 10.00 Fair CLR 90 57 33% 89 30.11 1019.9
16 15:55 SE 9 10.00 Fair CLR 90.7 56.7 32% 89 30.12 1020.2
16 14:55 E 7 10.00 Partly Cloudy SCT090 SCT120 SCT150 90.9 56.8 32% 89 30.13 1020.5
16 13:55 NE 10 10.00 Mostly Cloudy BKN090 BKN150 89.4 56.5 90.7 74.7 33% 88 30.14 1020.9
16 12:55 E 9 10.00 Partly Cloudy FEW095 SCT210 89.8 57.6 34% 89 30.15 1021.2
16 11:55 SE 5 G 17 10.00 A Few Clouds FEW180 88.5 58.1 36% 87 30.15 1021.2
16 10:55 E 9 10.00 Fair CLR 86.2 59 40% 86 30.16 1021.5
16 09:55 E 13 10.00 Fair CLR 84.2 57.2 40% 83 30.15 1021.2
16 08:55 SE 9 10.00 Fair CLR 79 65.7 64% 81 30.15 1021.2
16 07:55 E 7 10.00 Fair CLR 74.3 66.2 74.3 66.4 76% 30.13 1020.5
16 06:55 E 6 10.00 A Few Clouds FEW065 70.3 65.3 84% 30.11 0.0
16 05:55 E 5 10.00 Fair CLR 66.7 63 88% 30.1 0.0
16 04:55 E 3 10.00 A Few Clouds FEW060 68.9 65.5 89% 30.09 0.0
16 03:55 SE 3 10.00 Fair CLR 68.7 64.9 88% 30.08 0.0
16 02:55 SE 3 10.00 Fair CLR 71.4 66.6 85% 30.07 0.0
16 01:55 E 5 10.00 Fair CLR 73.9 68.4 88.5 72.1 83% 30.08 0.0
16 00:55 E 6 10.00 Partly Cloudy SCT050 74.8 67.8 79% 30.08 0.0
15 23:55 E 9 10.00 Fair CLR 76.8 69.1 77% 78 30.07 0.0
15 22:55 SE 5 10.00 Fair CLR 78.3 70.7 78% 81 30.06 0.0
15 21:55 SE 9 10.00 Fair CLR 81.3 69.6 68% 85 30.03 0.0
Date Time (edt) Wind (mph) Vis. (mi.) Weather Sky Cond. Air Dwpt Max. Min. Relative Humidity Wind Chill (°F) Heat Index (°F) altimeter (in) sea level (mb) 1 hr 3 hr 6 hr
6 hour
Temperature (ºF) Pressure Precipitation (in)